When you browse on this site, cookies collect data to enhance your experience and personalize the content and advertising you see.
Visit our Privacy Policy to learn more. By continuing to use the site, you agree to this use of cookies and data.
  • în România
  • Lista ţărilor
  • Pe 7 zile
  • Temperatura apei
  • Meteo pe hartă
  • Widget-uri
  • user-avatar
    Intrare

    Meteo pe oră la Brisbane

    Astăzi, 20 Septembrie, Vineri

    Timp Temperatura Precipitaţii Vânt Presiune Umiditate
    00:00 +18°C° 0 mm 1 m/s 766 mmHg 88%
    01:00 +16°C° 0 mm 1 m/s 766 mmHg 89%
    02:00 +16°C° 0 mm 1 m/s 766 mmHg 88%
    03:00 +16°C° 0 mm 1 m/s 766 mmHg 88%
    04:00 +16°C° 0 mm 1 m/s 766 mmHg 88%
    05:00 +16°C° 0 mm 1 m/s 766 mmHg 85%
    06:00 +18°C° 0 mm 1 m/s 767 mmHg 81%
    07:00 +19°C° 0 mm 1 m/s 767 mmHg 78%
    08:00 +20°C° 0 mm 2 m/s 767 mmHg 69%
    09:00 +23°C° 0 mm 2 m/s 767 mmHg 60%
    10:00 +25°C° 0 mm 2 m/s 767 mmHg 52%
    11:00 +26°C° 0 mm 3 m/s 766 mmHg 51%
    12:00 +26°C° 0 mm 3 m/s 766 mmHg 50%
    13:00 +27°C° 0 mm 3 m/s 765 mmHg 49%
    14:00 +26°C° 0 mm 4 m/s 765 mmHg 52%
    15:00 +25°C° 0 mm 4 m/s 765 mmHg 54%
    16:00 +25°C° 0 mm 4 m/s 765 mmHg 56%
    17:00 +22°C° 0 mm 3 m/s 765 mmHg 65%
    18:00 +21°C° 0 mm 3 m/s 765 mmHg 74%
    19:00 +19°C° 0 mm 2 m/s 766 mmHg 83%
    20:00 +19°C° 0 mm 2 m/s 766 mmHg 84%
    21:00 +19°C° 0 mm 2 m/s 767 mmHg 86%
    22:00 +19°C° 0 mm 1 m/s 767 mmHg 87%
    23:00 +19°C° 0 mm 1 m/s 767 mmHg 88%

    Mâine, 21 Septembrie, Sâmbătă

    Timp Temperatura Precipitaţii Vânt Presiune Umiditate
    00:00 +19°C° 0 mm 1 m/s 766 mmHg 90%
    01:00 +18°C° 0 mm 1 m/s 766 mmHg 91%
    02:00 +18°C° 0.2 mm 1 m/s 766 mmHg 91%
    03:00 +18°C° 0.2 mm 1 m/s 766 mmHg 92%
    04:00 +18°C° 0.2 mm 1 m/s 766 mmHg 92%
    05:00 +19°C° 0.2 mm 1 m/s 766 mmHg 90%
    06:00 +19°C° 0.2 mm 1 m/s 767 mmHg 88%
    07:00 +20°C° 0.2 mm 1 m/s 767 mmHg 85%
    08:00 +22°C° 0.1 mm 1 m/s 767 mmHg 76%
    09:00 +24°C° 0.1 mm 1 m/s 767 mmHg 67%
    10:00 +25°C° 0.1 mm 2 m/s 767 mmHg 57%
    11:00 +26°C° 0 mm 2 m/s 767 mmHg 54%
    12:00 +27°C° 0 mm 3 m/s 766 mmHg 50%
    13:00 +28°C° 0 mm 4 m/s 765 mmHg 46%
    14:00 +27°C° 0 mm 4 m/s 765 mmHg 48%
    15:00 +26°C° 0 mm 4 m/s 765 mmHg 50%
    16:00 +25°C° 0 mm 4 m/s 765 mmHg 52%
    17:00 +23°C° 0 mm 4 m/s 765 mmHg 62%
    18:00 +21°C° 0 mm 4 m/s 765 mmHg 73%
    19:00 +20°C° 0 mm 3 m/s 766 mmHg 83%
    20:00 +20°C° 0 mm 3 m/s 766 mmHg 85%
    21:00 +19°C° 0 mm 2 m/s 767 mmHg 86%
    22:00 +19°C° 0 mm 2 m/s 767 mmHg 88%
    23:00 +19°C° 0.2 mm 2 m/s 767 mmHg 89%

    Poimâine, 22 Septembrie, Duminică

    Timp Temperatura Precipitaţii Vânt Presiune Umiditate
    00:00 +20°C° 0.2 mm 1 m/s 767 mmHg 89%
    01:00 +20°C° 0.2 mm 1 m/s 766 mmHg 89%
    02:00 +19°C° 0.3 mm 1 m/s 766 mmHg 90%
    03:00 +19°C° 0.3 mm 1 m/s 766 mmHg 91%
    04:00 +19°C° 0.3 mm 1 m/s 766 mmHg 92%
    05:00 +19°C° 0.1 mm 1 m/s 767 mmHg 89%
    06:00 +20°C° 0.1 mm 1 m/s 767 mmHg 86%
    07:00 +20°C° 0.1 mm 1 m/s 767 mmHg 84%
    08:00 +22°C° 0 mm 1 m/s 768 mmHg 73%
    09:00 +24°C° 0 mm 2 m/s 768 mmHg 63%
    10:00 +26°C° 0 mm 2 m/s 768 mmHg 52%
    11:00 +27°C° 0 mm 2 m/s 767 mmHg 48%
    12:00 +28°C° 0 mm 3 m/s 766 mmHg 44%
    13:00 +29°C° 0 mm 3 m/s 765 mmHg 40%
    14:00 +28°C° 0 mm 4 m/s 765 mmHg 42%
    15:00 +27°C° 0 mm 4 m/s 765 mmHg 45%
    16:00 +26°C° 0 mm 4 m/s 765 mmHg 47%
    17:00 +23°C° 0 mm 4 m/s 765 mmHg 57%
    18:00 +22°C° 0 mm 4 m/s 765 mmHg 67%
    19:00 +20°C° 0 mm 3 m/s 766 mmHg 77%
    20:00 +20°C° 0 mm 3 m/s 766 mmHg 81%
    21:00 +19°C° 0 mm 2 m/s 766 mmHg 85%
    22:00 +19°C° 0 mm 2 m/s 767 mmHg 88%
    23:00 +18°C° 0 mm 2 m/s 766 mmHg 88%

    23 Septembrie, Luni

    Timp Temperatura Precipitaţii Vânt Presiune Umiditate
    00:00 +19°C° 0 mm 1 m/s 766 mmHg 89%
    01:00 +19°C° 0 mm 1 m/s 766 mmHg 89%
    02:00 +18°C° 0 mm 1 m/s 766 mmHg 89%
    03:00 +18°C° 0 mm 1 m/s 766 mmHg 89%
    04:00 +18°C° 0 mm 1 m/s 766 mmHg 89%
    05:00 +19°C° 0 mm 1 m/s 766 mmHg 86%
    06:00 +19°C° 0 mm 1 m/s 766 mmHg 83%
    07:00 +20°C° 0 mm 1 m/s 766 mmHg 80%
    08:00 +21°C° 0 mm 2 m/s 766 mmHg 69%
    09:00 +25°C° 0 mm 2 m/s 766 mmHg 58%
    10:00 +28°C° 0 mm 2 m/s 766 mmHg 46%
    11:00 +29°C° 0 mm 2 m/s 765 mmHg 42%
    12:00 +30°C° 0 mm 3 m/s 764 mmHg 38%
    13:00 +33°C° 0 mm 3 m/s 763 mmHg 34%
    14:00 +30°C° 0 mm 3 m/s 763 mmHg 41%
    15:00 +28°C° 0 mm 3 m/s 762 mmHg 48%
    16:00 +26°C° 0 mm 4 m/s 762 mmHg 55%
    17:00 +25°C° 0 mm 3 m/s 762 mmHg 60%
    18:00 +24°C° 0 mm 3 m/s 763 mmHg 66%
    19:00 +22°C° 0 mm 3 m/s 763 mmHg 71%
    20:00 +22°C° 0 mm 3 m/s 764 mmHg 73%
    21:00 +21°C° 0 mm 2 m/s 764 mmHg 75%
    22:00 +20°C° 0 mm 2 m/s 764 mmHg 77%
    23:00 +20°C° 0 mm 2 m/s 764 mmHg 79%

    24 Septembrie, Marţi

    Timp Temperatura Precipitaţii Vânt Presiune Umiditate
    00:00 +19°C° 0 mm 3 m/s 764 mmHg 81%
    01:00 +18°C° 0 mm 3 m/s 764 mmHg 83%
    02:00 +18°C° 0 mm 3 m/s 764 mmHg 85%
    03:00 +18°C° 0 mm 2 m/s 764 mmHg 86%
    04:00 +17°C° 0 mm 2 m/s 764 mmHg 87%
    05:00 +18°C° 0 mm 3 m/s 765 mmHg 82%
    06:00 +18°C° 0 mm 3 m/s 765 mmHg 78%
    07:00 +19°C° 0 mm 4 m/s 766 mmHg 73%
    08:00 +20°C° 0 mm 4 m/s 766 mmHg 65%
    09:00 +22°C° 0 mm 4 m/s 766 mmHg 57%
    10:00 +23°C° 0 mm 5 m/s 766 mmHg 48%
    11:00 +23°C° 0 mm 5 m/s 766 mmHg 48%
    12:00 +23°C° 0 mm 5 m/s 765 mmHg 48%
    13:00 +23°C° 0 mm 5 m/s 765 mmHg 48%
    14:00 +22°C° 0 mm 5 m/s 765 mmHg 50%
    15:00 +22°C° 0 mm 5 m/s 765 mmHg 51%
    16:00 +21°C° 0 mm 5 m/s 765 mmHg 53%
    17:00 +20°C° 0 mm 4 m/s 765 mmHg 58%
    18:00 +20°C° 0 mm 4 m/s 766 mmHg 63%
    19:00 +19°C° 0 mm 3 m/s 766 mmHg 68%
    20:00 +18°C° 0 mm 3 m/s 767 mmHg 69%
    21:00 +18°C° 0 mm 3 m/s 767 mmHg 71%
    22:00 +18°C° 0 mm 2 m/s 767 mmHg 73%
    23:00 +18°C° 0 mm 2 m/s 767 mmHg 74%

    25 Septembrie, Miercuri

    Timp Temperatura Precipitaţii Vânt Presiune Umiditate
    00:00 +17°C° 0 mm 2 m/s 766 mmHg 76%
    01:00 +17°C° 0 mm 2 m/s 766 mmHg 78%
    02:00 +17°C° 0 mm 2 m/s 766 mmHg 78%
    03:00 +17°C° 0 mm 2 m/s 766 mmHg 79%
    04:00 +17°C° 0 mm 2 m/s 766 mmHg 79%
    05:00 +17°C° 0 mm 2 m/s 766 mmHg 77%
    06:00 +18°C° 0 mm 2 m/s 767 mmHg 74%
    07:00 +18°C° 0 mm 2 m/s 767 mmHg 71%
    08:00 +20°C° 0 mm 2 m/s 767 mmHg 65%
    09:00 +23°C° 0 mm 2 m/s 767 mmHg 58%
    10:00 +24°C° 0 mm 2 m/s 767 mmHg 52%
    11:00 +24°C° 0 mm 2 m/s 766 mmHg 52%
    12:00 +24°C° 0 mm 3 m/s 766 mmHg 51%
    13:00 +24°C° 0 mm 3 m/s 765 mmHg 51%
    14:00 +24°C° 0 mm 3 m/s 765 mmHg 52%
    15:00 +23°C° 0 mm 4 m/s 764 mmHg 53%
    16:00 +23°C° 0 mm 4 m/s 764 mmHg 53%
    17:00 +21°C° 0 mm 4 m/s 765 mmHg 60%
    18:00 +20°C° 0 mm 3 m/s 765 mmHg 67%
    19:00 +19°C° 0 mm 3 m/s 766 mmHg 73%
    20:00 +18°C° 0 mm 3 m/s 766 mmHg 76%
    21:00 +18°C° 0 mm 2 m/s 766 mmHg 79%
    22:00 +18°C° 0 mm 1 m/s 766 mmHg 82%
    23:00 +18°C° 0 mm 1 m/s 766 mmHg 82%
    Arată mai mult